M I D A S
Marine Information and Data Acquisition System
Tripno 2167 of the Zeeleeuw from 2011-08-19 07:27:30 to 2011-08-19 15:53:17
Back to CruiseResearch ActivitiesStationsMapUnderway DataData graphs

EquipmentUnitsComments
TimeDGPSUTC
LatitudeDGPSDM.mWGS84
LongitudeDGPSDM.mWGS84
SpeedMeteo Stationm/sRelative wind speed
DirectionMeteo StationdegRelative wind direction
TemperatureMeteo Stationdeg CelciusAir temperature
PressureMeteo StationPaAtmospheric pressure
HumidityMeteo Station%Relative humidity
Missing or incorrect values are displayed as -999
Metereological data collected by the RV Zeeleeuw from 2011-08-19 07:08:29 to 2011-08-19 15:54:02
Time Latitude Longitude Speed Direction Temperature Pressure Humidity
2011-08-19 07:09 51°13.636 2°56.019 0.1 25 16.5 101720 41
2011-08-19 07:10 51°13.634 2°56.018 -999 25 16.5 101710 41
2011-08-19 07:11 51°13.647 2°55.974 4.9 22 16.4 101710 40
2011-08-19 07:12 51°13.679 2°55.868 5.9 22 16.1 101710 40
2011-08-19 07:13 51°13.701 2°55.761 5.7 27 16 101720 39
2011-08-19 07:14 51°13.707 2°55.721 4.1 253 15.9 101720 42
2011-08-19 07:15 51°13.719 2°55.746 4.5 21 15.9 101710 42
2011-08-19 07:16 51°13.729 2°55.757 0.2 23 15.9 101710 41
2011-08-19 07:17 51°13.717 2°55.746 5.9 331 16 101710 41
2011-08-19 07:18 51°13.803 2°55.668 8.2 328 16 101710 41
2011-08-19 07:19 51°13.934 2°55.568 7.4 329 15.9 101700 41
2011-08-19 07:20 51°14.069 2°55.466 8.1 328 16 101710 41
2011-08-19 07:21 51°14.215 2°55.344 8.8 323 16 101690 40
2011-08-19 07:22 51°14.358 2°55.206 8.9 327 15.9 101690 41
2011-08-19 07:23 51°14.5 2°55.059 12.8 327 15.9 101690 41
2011-08-19 07:24 51°14.652 2°54.908 8.7 317 15.9 101690 41
2011-08-19 07:25 51°14.846 2°54.895 7.6 25 15.9 101690 41
2011-08-19 07:26 51°15.028 2°54.992 6.6 27 15.8 101690 41
2011-08-19 07:27 51°15.202 2°55.126 7.4 26 15.8 101700 41
2011-08-19 07:28 51°15.37 2°55.272 7.7 28 15.9 101700 42
2011-08-19 07:29 51°15.492 2°55.506 5.7 20 15.8 101700 40
2011-08-19 07:30 51°15.611 2°55.745 5.5 28 15.8 101710 40
2011-08-19 07:31 51°15.724 2°55.99 6.4 21 15.8 101720 41
2011-08-19 07:32 51°15.845 2°56.223 6 26 15.9 101710 41
2011-08-19 07:33 51°15.97 2°56.448 6.5 28 15.9 101720 40
2011-08-19 07:34 51°16.072 2°56.701 5.1 26 15.9 101720 40
2011-08-19 07:35 51°16.165 2°56.959 5.4 20 15.9 101720 41
2011-08-19 07:36 51°16.265 2°57.21 5.6 22 15.8 101720 41
2011-08-19 07:37 51°16.356 2°57.466 6.9 21 15.9 101720 40
2011-08-19 07:38 51°16.454 2°57.716 5.1 22 15.9 101730 42
2011-08-19 07:39 51°16.549 2°57.97 5.1 23 15.8 101730 41
2011-08-19 07:40 51°16.659 2°58.208 5.2 21 15.8 101730 41
2011-08-19 07:41 51°16.753 2°58.464 7.1 23 15.8 101740 40
2011-08-19 07:42 51°16.866 2°58.701 5 22 15.8 101730 41
2011-08-19 07:43 51°16.97 2°58.948 7.3 29 15.9 101720 41
2011-08-19 07:44 51°17.076 2°59.194 4.6 20 15.8 101730 41
2011-08-19 07:45 51°17.177 2°59.447 7.1 25 15.8 101730 39
2011-08-19 07:46 51°17.284 2°59.691 6.3 25 15.8 101730 41
2011-08-19 07:47 51°17.393 2°59.932 5.1 24 15.8 101730 41
2011-08-19 07:48 51°17.489 3°0.187 3.1 23 15.8 101740 40
2011-08-19 07:49 51°17.58 3°0.447 5.5 23 15.8 101730 41
2011-08-19 07:50 51°17.677 3°0.7 6.4 21 15.8 101730 40
2011-08-19 07:51 51°17.794 3°0.931 6.8 30 15.7 101730 40
2011-08-19 07:52 51°17.895 3°1.179 3.9 26 15.8 101730 40
2011-08-19 07:53 51°17.998 3°1.423 5.5 21 15.8 101730 39
2011-08-19 07:54 51°18.098 3°1.672 5.6 24 15.8 101740 40
2011-08-19 07:55 51°18.204 3°1.914 5.3 20 15.9 101740 41
2011-08-19 07:56 51°18.315 3°2.151 7.6 26 15.9 101730 41
2011-08-19 07:57 51°18.421 3°2.392 4.9 26 15.9 101740 40
2011-08-19 07:58 51°18.493 3°2.663 3.6 23 15.9 101750 41
2011-08-19 07:59 51°18.575 3°2.925 4.2 21 15.9 101750 41
2011-08-19 08:00 51°18.666 3°3.177 3.9 21 15.8 101750 41
2011-08-19 08:01 51°18.762 3°3.426 5.2 20 15.9 101750 39
2011-08-19 08:02 51°18.841 3°3.689 4.7 22 15.9 101750 41
2011-08-19 08:03 51°18.938 3°3.936 4.6 26 16 101750 40
2011-08-19 08:04 51°19.061 3°4.145 6.6 21 16.1 101760 40
2011-08-19 08:05 51°19.179 3°4.365 5.5 24 16.1 101760 40
2011-08-19 08:06 51°19.314 3°4.56 6.9 20 16.2 101760 41
2011-08-19 08:07 51°19.448 3°4.752 7.1 25 16.2 101760 41
2011-08-19 08:08 51°19.58 3°4.948 7.4 28 16.1 101760 41
2011-08-19 08:09 51°19.695 3°5.173 4.7 247 16.1 101760 39
2011-08-19 08:10 51°19.811 3°5.387 5.6 247 16.1 101770 40
2011-08-19 08:11 51°19.898 3°5.638 6.2 28 16.1 101770 40
2011-08-19 08:12 51°20.003 3°5.871 6.5 25 16.1 101770 40
2011-08-19 08:13 51°20.099 3°6.114 5 245 16.1 101770 40
2011-08-19 08:14 51°20.211 3°6.339 6.6 24 16.1 101770 41
2011-08-19 08:15 51°20.323 3°6.564 5 27 16.1 101780 40
2011-08-19 08:16 51°20.425 3°6.799 4.7 24 16.3 101780 41
2011-08-19 08:17 51°20.533 3°7.024 6.6 22 16.3 101780 40
2011-08-19 08:18 51°20.637 3°7.254 6.8 26 16.3 101770 41
2011-08-19 08:19 51°20.741 3°7.484 6.5 27 16.2 101780 40
2011-08-19 08:20 51°20.885 3°7.658 7 25 16.2 101770 41
2011-08-19 08:21 51°21.055 3°7.758 7.3 23 16.2 101770 40
2011-08-19 08:22 51°21.235 3°7.825 8.4 28 16.1 101770 40
2011-08-19 08:23 51°21.395 3°7.886 7.6 28 16 101770 39
2011-08-19 08:24 51°21.474 3°7.817 8.7 325 16 101770 39
2011-08-19 08:25 51°21.474 3°7.69 6.3 350 15.9 101770 38
2011-08-19 08:26 51°21.453 3°7.591 6 355 15.9 101770 40
2011-08-19 08:27 51°21.432 3°7.493 7.8 345 15.7 101760 41
2011-08-19 08:28 51°21.428 3°7.375 6.1 323 15.8 101770 41
2011-08-19 08:29 51°21.456 3°7.281 6.5 21 15.7 101780 40
2011-08-19 08:30 51°21.501 3°7.257 6.5 261 15.9 101780 40
2011-08-19 08:31 51°21.55 3°7.264 7.1 252 15.9 101790 39
2011-08-19 08:32 51°21.601 3°7.264 5.7 251 15.9 101790 39
2011-08-19 08:33 51°21.654 3°7.261 6 252 16 101790 38
2011-08-19 08:34 51°21.697 3°7.287 5.7 262 16 101800 39
2011-08-19 08:35 51°21.726 3°7.35 4.4 28 16 101790 39
2011-08-19 08:36 51°21.745 3°7.426 3.4 32 16 101800 38
2011-08-19 08:37 51°21.77 3°7.495 1.8 267 16 101800 38
2011-08-19 08:38 51°21.788 3°7.569 4.3 32 16 101800 39
2011-08-19 08:39 51°21.807 3°7.645 2.9 269 16.2 101800 40
2011-08-19 08:40 51°21.828 3°7.719 2.8 265 16.2 101800 40
2011-08-19 08:41 51°21.851 3°7.794 2.4 270 16.1 101800 38
2011-08-19 08:42 51°21.866 3°7.876 -999 261 16.2 101810 39
2011-08-19 08:43 51°21.896 3°7.94 4.2 261 16.2 101800 38
2011-08-19 08:44 51°21.94 3°7.987 5.9 260 16.1 101800 39
2011-08-19 08:45 51°21.977 3°8.049 2.2 263 16.1 101810 39
2011-08-19 08:46 51°22.01 3°8.115 4.3 262 16.1 101810 40
2011-08-19 08:47 51°22.036 3°8.187 3.9 284 16.1 101810 38
2011-08-19 08:48 51°22.057 3°8.266 3.6 269 16.1 101820 39
2011-08-19 08:49 51°22.08 3°8.345 1.9 264 16.1 101820 37
2011-08-19 08:50 51°22.107 3°8.418 2.6 -999 16 101820 38
2011-08-19 08:51 51°22.14 3°8.483 0.1 264 16 101820 38
2011-08-19 08:52 51°22.172 3°8.55 1.5 287 16 101820 38
2011-08-19 08:53 51°22.204 3°8.619 0.2 266 16.1 101820 38
2011-08-19 08:54 51°22.235 3°8.689 0.1 292 16.1 101820 39
2011-08-19 08:55 51°22.262 3°8.758 4.2 25 16.1 101830 39
2011-08-19 08:56 51°22.292 3°8.823 5.2 270 16.2 101830 40
2011-08-19 08:57 51°22.326 3°8.883 5.3 -999 16.1 101820 37
2011-08-19 08:58 51°22.362 3°8.944 0.1 27 16 101820 39
2011-08-19 08:59 51°22.391 3°9.015 3.1 -999 16.1 101820 38
2011-08-19 09:00 51°22.417 3°9.088 3 285 16.2 101820 40
2011-08-19 09:01 51°22.443 3°9.16 4.1 -999 16.2 101840 39
2011-08-19 09:02 51°22.471 3°9.233 0.1 265 16.2 101830 40
2011-08-19 09:03 51°22.495 3°9.309 -999 79 16.2 101830 39
2011-08-19 09:04 51°22.488 3°9.394 -999 24 16.2 101830 39
2011-08-19 09:05 51°22.437 3°9.456 0.3 33 16.1 101840 37
2011-08-19 09:06 51°22.358 3°9.457 4.8 10 16.2 101840 40
2011-08-19 09:07 51°22.28 3°9.394 6.6 8 16.2 101840 39
2011-08-19 09:08 51°22.233 3°9.322 5.1 5 16 101840 38
2011-08-19 09:09 51°22.203 3°9.257 5.4 1 15.9 101840 38
2011-08-19 09:10 51°22.177 3°9.2 5.7 7 15.9 101830 40
2011-08-19 09:11 51°22.155 3°9.147 4.7 4 15.8 101840 39
2011-08-19 09:12 51°22.135 3°9.097 4.2 7 15.7 101850 39
2011-08-19 09:13 51°22.11 3°9.041 6 3 15.8 101840 39
2011-08-19 09:14 51°22.065 3°8.957 5.4 6 15.7 101850 40
2011-08-19 09:15 51°22.001 3°8.871 6 8 15.7 101850 40
2011-08-19 09:16 51°21.93 3°8.778 5.3 6 15.7 101850 41
2011-08-19 09:17 51°21.858 3°8.683 7.7 359 15.8 101850 40
2011-08-19 09:18 51°21.785 3°8.588 5.2 2 15.7 101850 39
2011-08-19 09:19 51°21.71 3°8.491 7.3 357 15.7 101850 39
2011-08-19 09:20 51°21.633 3°8.397 5.7 359 15.7 101850 39
2011-08-19 09:21 51°21.556 3°8.309 5.6 357 15.7 101850 38
2011-08-19 09:22 51°21.482 3°8.224 6.3 5 15.7 101850 40
2011-08-19 09:23 51°21.41 3°8.139 5.7 -999 15.7 101850 40
2011-08-19 09:24 51°21.339 3°8.053 5.9 356 15.6 101850 39
2011-08-19 09:25 51°21.267 3°7.969 5 7 15.7 101860 40
2011-08-19 09:26 51°21.195 3°7.884 5.7 6 15.6 101860 39
2011-08-19 09:27 51°21.128 3°7.855 5.1 -999 15.7 101870 40
2011-08-19 09:28 51°21.086 3°7.893 3 77 15.7 101870 40
2011-08-19 09:29 51°21.093 3°7.949 5.2 260 15.8 101870 38
2011-08-19 09:30 51°21.143 3°7.998 4.3 282 16 101870 39
2011-08-19 09:31 51°21.21 3°8.06 4.8 282 16 101870 39
2011-08-19 09:32 51°21.271 3°8.12 5.5 278 16.2 101870 39
2011-08-19 09:33 51°21.327 3°8.178 5.9 284 16.3 101870 39
2011-08-19 09:34 51°21.381 3°8.229 4.8 252 16.3 101880 39
2011-08-19 09:35 51°21.436 3°8.278 5.2 279 16.4 101870 38
2011-08-19 09:36 51°21.49 3°8.325 7 254 16.4 101880 39
2011-08-19 09:37 51°21.545 3°8.375 4.6 283 16.5 101880 38
2011-08-19 09:38 51°21.598 3°8.425 4.9 256 16.5 101870 38
2011-08-19 09:39 51°21.649 3°8.474 6.3 285 16.5 101880 39
2011-08-19 09:40 51°21.704 3°8.513 6.3 283 16.5 101870 39
2011-08-19 09:41 51°21.76 3°8.552 5.5 284 16.5 101870 39
2011-08-19 09:42 51°21.815 3°8.594 5.5 285 16.4 101880 38
2011-08-19 09:43 51°21.869 3°8.641 5.6 260 16.4 101880 39
2011-08-19 09:44 51°21.922 3°8.69 4 284 16.4 101880 39
2011-08-19 09:45 51°21.978 3°8.735 5.1 278 16.5 101880 38
2011-08-19 09:46 51°22.033 3°8.776 2.8 285 16.5 101870 39
2011-08-19 09:47 51°22.042 3°8.855 0.7 45 16.5 101880 39
2011-08-19 09:48 51°21.989 3°8.918 4.4 24 16.4 101880 39
2011-08-19 09:49 51°21.866 3°8.856 9.4 352 16.3 101870 39
2011-08-19 09:50 51°21.832 3°8.608 11.9 327 16.1 101870 40
2011-08-19 09:51 51°21.945 3°8.471 8.3 27 16.1 101860 39
2011-08-19 09:52 51°22.086 3°8.367 8.2 22 16.1 101860 39
2011-08-19 09:53 51°22.231 3°8.268 8.9 22 16.1 101860 38
2011-08-19 09:54 51°22.385 3°8.172 9.1 24 16.1 101860 39
2011-08-19 09:55 51°22.541 3°8.086 8.1 26 16 101860 39
2011-08-19 09:56 51°22.696 3°7.99 8.3 21 15.9 101870 38
2011-08-19 09:57 51°22.847 3°7.869 8.2 26 16 101860 39
2011-08-19 09:58 51°22.996 3°7.731 7.8 26 16 101860 39
2011-08-19 09:59 51°23.137 3°7.627 6.6 26 15.9 101870 38
2011-08-19 10:00 51°23.19 3°7.506 7.3 321 15.9 101870 38
2011-08-19 10:01 51°23.196 3°7.38 5.8 330 16 101880 37
2011-08-19 10:02 51°23.197 3°7.263 5.8 329 16 101880 37
2011-08-19 10:03 51°23.199 3°7.158 5.4 323 16 101890 37
2011-08-19 10:04 51°23.202 3°7.06 5.2 327 16 101880 39
2011-08-19 10:05 51°23.202 3°6.963 7.7 327 16.1 101880 39
2011-08-19 10:06 51°23.2 3°6.869 6.1 327 16.1 101890 38
2011-08-19 10:07 51°23.201 3°6.774 7.6 324 16 101890 38
2011-08-19 10:08 51°23.204 3°6.68 5.8 320 16.1 101890 38
2011-08-19 10:09 51°23.212 3°6.589 6 320 16.1 101880 37
2011-08-19 10:10 51°23.226 3°6.501 6.6 23 16.2 101890 38
2011-08-19 10:11 51°23.249 3°6.429 7.2 28 16.2 101890 39
2011-08-19 10:12 51°23.278 3°6.396 8.6 256 16.2 101890 38
2011-08-19 10:13 51°23.297 3°6.402 4 21 16.1 101900 38
2011-08-19 10:14 51°23.295 3°6.434 -999 25 16.2 101900 39
2011-08-19 10:15 51°23.284 3°6.482 0.1 22 16.1 101900 39
2011-08-19 10:16 51°23.295 3°6.551 1.8 263 16 101910 39
2011-08-19 10:17 51°23.321 3°6.634 4.4 29 16.1 101910 38
2011-08-19 10:18 51°23.32 3°6.74 3 28 16.2 101910 39
2011-08-19 10:19 51°23.308 3°6.856 3.7 26 16 101910 38
2011-08-19 10:20 51°23.301 3°6.976 2.3 26 16 101910 40
2011-08-19 10:21 51°23.291 3°7.097 -999 25 16.1 101910 39
2011-08-19 10:22 51°23.286 3°7.215 -999 25 16.2 101910 40
2011-08-19 10:23 51°23.284 3°7.332 -999 25 16.2 101910 40
2011-08-19 10:24 51°23.282 3°7.45 -999 25 16.1 101910 39
2011-08-19 10:25 51°23.278 3°7.57 -999 25 16 101910 37
2011-08-19 10:26 51°23.272 3°7.691 -999 26 16.1 101920 40
2011-08-19 10:27 51°23.267 3°7.811 -999 25 16.1 101910 39
2011-08-19 10:28 51°23.267 3°7.927 -999 265 16.2 101910 40
2011-08-19 10:29 51°23.265 3°8.043 3 30 16.4 101920 39
2011-08-19 10:30 51°23.263 3°8.157 3.6 24 16.3 101920 40
2011-08-19 10:31 51°23.258 3°8.269 4.3 28 16.3 101920 40
2011-08-19 10:32 51°23.294 3°8.298 8 26 16.3 101920 40
2011-08-19 10:33 51°23.325 3°8.221 6.9 327 16.3 101910 37
2011-08-19 10:34 51°23.318 3°8.085 8.1 337 16.3 101910 38
2011-08-19 10:35 51°23.302 3°7.93 8.6 338 16.3 101910 39
2011-08-19 10:36 51°23.293 3°7.771 9.2 331 16.3 101910 39
2011-08-19 10:37 51°23.285 3°7.63 7.1 330 16.2 101910 39
2011-08-19 10:38 51°23.275 3°7.492 8.5 331 16.1 101910 38
2011-08-19 10:39 51°23.263 3°7.357 6.9 336 16.1 101910 39
2011-08-19 10:40 51°23.25 3°7.219 6.8 337 16.2 101920 40
2011-08-19 10:41 51°23.242 3°7.085 6.5 332 16.1 101920 38
2011-08-19 10:42 51°23.235 3°6.947 6.6 329 16.1 101910 40
2011-08-19 10:43 51°23.228 3°6.809 10.1 335 16.2 101910 41
2011-08-19 10:44 51°23.22 3°6.667 8.1 336 16.2 101910 40
2011-08-19 10:45 51°23.209 3°6.531 7.5 337 16.1 101910 39
2011-08-19 10:46 51°23.178 3°6.412 7.9 359 16.1 101910 40
2011-08-19 10:47 51°23.114 3°6.372 4.9 34 16 101920 41
2011-08-19 10:48 51°23.082 3°6.423 3.1 270 16 101940 40
2011-08-19 10:49 51°23.094 3°6.526 -999 25 16 101930 38
2011-08-19 10:50 51°23.105 3°6.664 -999 25 16 101940 39
2011-08-19 10:51 51°23.116 3°6.811 -999 264 16.1 101930 39
2011-08-19 10:52 51°23.13 3°6.955 -999 264 16.3 101930 40
2011-08-19 10:53 51°23.142 3°7.085 0.1 261 16.3 101930 40
2011-08-19 10:54 51°23.154 3°7.213 -999 262 16.3 101940 39
2011-08-19 10:55 51°23.16 3°7.342 2.3 267 16.3 101930 39
2011-08-19 10:56 51°23.168 3°7.471 2.8 265 16.3 101950 39
2011-08-19 10:57 51°23.181 3°7.599 0.1 266 16.3 101940 38
2011-08-19 10:58 51°23.199 3°7.727 -999 265 16.3 101950 39
2011-08-19 10:59 51°23.217 3°7.856 0.2 261 16.3 101950 40
2011-08-19 11:00 51°23.23 3°7.987 -999 30 16.4 101940 39
2011-08-19 11:01 51°23.237 3°8.121 -999 270 16.4 101950 40
2011-08-19 11:02 51°23.246 3°8.253 0.1 25 16.4 101950 41
2011-08-19 11:03 51°23.208 3°8.346 -999 28 16.4 101950 41
2011-08-19 11:04 51°23.137 3°8.322 6.5 5 16.3 101950 39
2011-08-19 11:05 51°23.082 3°8.228 9.4 350 16.2 101950 38
2011-08-19 11:06 51°23.066 3°8.106 6.9 333 16.1 101960 41
2011-08-19 11:07 51°23.075 3°7.977 8.6 327 16.2 101950 40
2011-08-19 11:08 51°23.083 3°7.841 7.3 335 16.1 101960 41
2011-08-19 11:09 51°23.084 3°7.707 7.7 337 16.2 101960 41
2011-08-19 11:10 51°23.09 3°7.566 8.7 331 16.3 101970 41
2011-08-19 11:11 51°23.097 3°7.427 8.2 334 16.3 101970 42
2011-08-19 11:12 51°23.104 3°7.286 8.4 331 16.3 101970 41
2011-08-19 11:13 51°23.114 3°7.145 7.9 333 16.1 101970 39
2011-08-19 11:14 51°23.12 3°7 8.5 334 16.2 101970 40
2011-08-19 11:15 51°23.125 3°6.858 8.8 333 16.2 101960 41
2011-08-19 11:16 51°23.133 3°6.717 8.5 335 16.2 101970 42
2011-08-19 11:17 51°23.142 3°6.575 9 329 16.1 101970 42
2011-08-19 11:18 51°23.152 3°6.434 6.6 328 16.1 101970 42
2011-08-19 11:19 51°23.186 3°6.348 6.5 22 16.1 101960 42
2011-08-19 11:20 51°23.21 3°6.371 3.5 23 16.2 101980 43
2011-08-19 11:21 51°23.193 3°6.451 2 29 16.1 101970 41
2011-08-19 11:22 51°23.178 3°6.558 1.9 21 16.1 101980 42
2011-08-19 11:23 51°23.163 3°6.676 1.8 23 16.2 101980 43
2011-08-19 11:24 51°23.134 3°6.789 2.6 21 16.2 101980 44
2011-08-19 11:25 51°23.059 3°6.819 5.5 15 16.3 101970 42
2011-08-19 11:26 51°23.002 3°6.723 5.6 348 16.2 101960 42
2011-08-19 11:27 51°22.987 3°6.579 7.8 331 16.1 101960 43
2011-08-19 11:28 51°23.025 3°6.444 9.5 22 16.1 101970 43
2011-08-19 11:29 51°23.158 3°6.348 9.1 317 16.1 101950 41
2011-08-19 11:30 51°23.341 3°6.229 11 21 16.1 101960 44
2011-08-19 11:31 51°23.528 3°6.11 11.5 20 16 101940 42
2011-08-19 11:32 51°23.724 3°6.016 9.8 316 16 101960 43
2011-08-19 11:33 51°23.918 3°5.93 12.4 317 16 101940 42
2011-08-19 11:34 51°24.105 3°5.825 11.4 27 16 101940 42
2011-08-19 11:35 51°24.297 3°5.732 10.6 319 16 101950 42
2011-08-19 11:36 51°24.483 3°5.62 9.7 318 16.1 101950 43
2011-08-19 11:37 51°24.67 3°5.532 11.4 25 16.1 101950 42
2011-08-19 11:38 51°24.857 3°5.445 11.1 22 16.1 101950 43
2011-08-19 11:39 51°25.039 3°5.34 11.5 21 16 101950 43
2011-08-19 11:40 51°25.222 3°5.248 9.3 316 16 101950 43
2011-08-19 11:41 51°25.4 3°5.139 12.9 26 16 101950 43
2011-08-19 11:42 51°25.554 3°4.95 13.3 320 16 101940 43
2011-08-19 11:43 51°25.701 3°4.753 9.4 319 16 101940 43
2011-08-19 11:44 51°25.877 3°4.643 8.4 27 16 101950 42
2011-08-19 11:45 51°26.054 3°4.546 8.6 21 16 101940 41
2011-08-19 11:46 51°26.232 3°4.449 8.4 25 16 101940 43
2011-08-19 11:47 51°26.405 3°4.331 10.5 27 16 101940 43
2011-08-19 11:48 51°26.583 3°4.226 10.6 23 16 101950 42
2011-08-19 11:49 51°26.765 3°4.127 8.4 30 16 101940 43
2011-08-19 11:50 51°26.942 3°4.03 11.1 317 16 101940 42
2011-08-19 11:51 51°27.122 3°3.917 8.4 27 16 101950 43
2011-08-19 11:52 51°27.302 3°3.81 9.6 27 16 101940 43
2011-08-19 11:53 51°27.475 3°3.684 9.5 22 16.1 101950 42
2011-08-19 11:54 51°27.562 3°3.6 6.1 29 16 101960 43
2011-08-19 11:55 51°27.597 3°3.626 3.7 21 16.1 101970 43
2011-08-19 11:56 51°27.595 3°3.695 3.3 14 16.1 101970 43
2011-08-19 11:57 51°27.609 3°3.771 1.9 265 16.1 101980 42
2011-08-19 11:58 51°27.632 3°3.873 3.4 30 16.2 101970 43
2011-08-19 11:59 51°27.657 3°3.987 3 29 16.2 101970 43
2011-08-19 12:00 51°27.681 3°4.11 1.4 30 16.4 101970 44
2011-08-19 12:01 51°27.706 3°4.23 -999 25 16.4 101980 42
2011-08-19 12:02 51°27.735 3°4.348 -999 270 16.5 101980 44
2011-08-19 12:03 51°27.765 3°4.467 -999 270 16.4 101980 44
2011-08-19 12:04 51°27.795 3°4.587 -999 270 16.5 101980 44
2011-08-19 12:05 51°27.823 3°4.71 -999 25 16.5 101980 43
2011-08-19 12:06 51°27.845 3°4.833 -999 270 16.5 101980 44
2011-08-19 12:07 51°27.872 3°4.955 -999 27 16.5 101980 44
2011-08-19 12:08 51°27.902 3°5.075 -999 25 16.6 101980 44
2011-08-19 12:09 51°27.932 3°5.194 -999 25 16.6 101980 43
2011-08-19 12:10 51°27.954 3°5.32 -999 25 16.5 101990 43
2011-08-19 12:11 51°27.977 3°5.437 -999 268 16.3 101980 43
2011-08-19 12:12 51°28.018 3°5.427 6.7 30 16.4 101980 43
2011-08-19 12:13 51°28.009 3°5.323 7.8 332 16.5 101970 44
2011-08-19 12:14 51°27.951 3°5.203 7.9 342 16.5 101980 44
2011-08-19 12:15 51°27.901 3°5.053 8.3 331 16.4 101970 43
2011-08-19 12:16 51°27.864 3°4.891 7.8 334 16.4 101980 43
2011-08-19 12:17 51°27.823 3°4.729 8.8 331 16.4 101980 42
2011-08-19 12:18 51°27.784 3°4.563 7.7 331 16.4 101980 43
2011-08-19 12:19 51°27.747 3°4.395 8.7 331 16.4 101980 44
2011-08-19 12:20 51°27.715 3°4.233 8.8 333 16.3 101980 44
2011-08-19 12:21 51°27.679 3°4.088 8.5 336 16.3 101980 43
2011-08-19 12:22 51°27.64 3°3.949 8.1 335 16.5 101980 44
2011-08-19 12:23 51°27.604 3°3.809 6.8 333 16.4 101980 44
2011-08-19 12:24 51°27.569 3°3.672 7.8 331 16.4 101980 44
2011-08-19 12:25 51°27.533 3°3.532 7.3 329 16.4 101970 43
2011-08-19 12:26 51°27.504 3°3.396 6.1 328 16.3 101980 44
2011-08-19 12:27 51°27.47 3°3.256 7.3 331 16.4 101980 45
2011-08-19 12:28 51°27.432 3°3.119 6.5 334 16.4 101990 44
2011-08-19 12:29 51°27.393 3°2.981 8.7 335 16.4 101980 44
2011-08-19 12:30 51°27.375 3°2.854 7.3 22 16.4 101980 45
2011-08-19 12:31 51°27.401 3°2.808 5.5 262 16.4 101980 43
2011-08-19 12:32 51°27.41 3°2.86 2.4 28 16.5 101990 45
2011-08-19 12:33 51°27.416 3°2.961 3.1 22 16.5 102000 42
2011-08-19 12:34 51°27.438 3°3.074 3 28 16.4 102000 44
2011-08-19 12:35 51°27.458 3°3.195 2.3 31 16.4 102000 43
2011-08-19 12:36 51°27.474 3°3.321 0.6 26 16.5 102000 44
2011-08-19 12:37 51°27.492 3°3.448 1.3 30 16.6 102000 44
2011-08-19 12:38 51°27.51 3°3.578 1 24 16.6 102000 44
2011-08-19 12:39 51°27.533 3°3.705 1.6 270 16.6 102000 44
2011-08-19 12:40 51°27.557 3°3.831 2.3 24 16.7 102000 43
2011-08-19 12:41 51°27.579 3°3.96 2.9 26 16.7 102000 43
2011-08-19 12:42 51°27.6 3°4.087 1.6 24 16.6 102000 42
2011-08-19 12:43 51°27.625 3°4.214 0.2 26 16.7 102000 43
2011-08-19 12:44 51°27.653 3°4.335 1.6 28 16.6 102000 43
2011-08-19 12:45 51°27.685 3°4.455 1.2 29 16.5 102010 43
2011-08-19 12:46 51°27.716 3°4.575 2.9 18 16.7 102010 44
2011-08-19 12:47 51°27.774 3°4.677 6.3 278 16.7 102000 44
2011-08-19 12:48 51°27.835 3°4.511 9.5 280 16.8 101980 43
2011-08-19 12:49 51°27.865 3°4.188 13.3 326 16.8 101980 42
2011-08-19 12:50 51°27.919 3°3.871 10.3 324 16.7 101950 43
2011-08-19 12:51 51°27.965 3°3.543 11.4 324 16.6 101970 43
2011-08-19 12:52 51°28.013 3°3.209 10 278 16.8 101980 45
2011-08-19 12:53 51°28.058 3°2.884 11 324 16.7 101970 43
2011-08-19 12:54 51°28.118 3°2.556 9.8 278 16.7 101960 44
2011-08-19 12:55 51°28.167 3°2.235 10.6 326 16.7 101960 44
2011-08-19 12:56 51°28.217 3°1.914 10.9 280 16.6 101980 43
2011-08-19 12:57 51°28.265 3°1.589 11.5 326 16.6 101970 41
2011-08-19 12:58 51°28.323 3°1.266 10.3 276 16.6 101970 44
2011-08-19 12:59 51°28.377 3°0.944 13.4 278 16.6 101960 43
2011-08-19 13:00 51°28.422 3°0.616 11.8 281 16.6 101970 44
2011-08-19 13:01 51°28.473 3°0.291 9.7 279 16.6 101970 43
2011-08-19 13:02 51°28.521 2°59.963 13.7 285 16.6 101970 44
2011-08-19 13:03 51°28.576 2°59.637 12.5 279 16.7 101970 43
2011-08-19 13:04 51°28.632 2°59.308 13 281 16.7 101960 44
2011-08-19 13:05 51°28.682 2°58.978 13.7 280 16.6 101980 42
2011-08-19 13:06 51°28.742 2°58.651 12.6 320 16.6 101980 43
2011-08-19 13:07 51°28.793 2°58.314 10.9 323 16.6 101980 44
2011-08-19 13:08 51°28.847 2°57.992 10.6 281 16.6 101980 44
2011-08-19 13:09 51°28.896 2°57.66 11.2 282 16.5 101980 43
2011-08-19 13:10 51°28.935 2°57.4 8.6 280 16.6 101980 44
2011-08-19 13:11 51°28.941 2°57.259 6.5 284 16.6 102000 44
2011-08-19 13:12 51°28.947 2°57.146 7.4 279 16.7 101990 44
2011-08-19 13:13 51°28.961 2°57.056 7.3 283 16.7 101990 43
2011-08-19 13:14 51°28.998 2°56.998 6.4 284 16.7 102000 44
2011-08-19 13:15 51°29.048 2°56.977 7.1 284 16.7 102000 45
2011-08-19 13:16 51°29.103 2°57.003 4 282 16.8 102010 43
2011-08-19 13:17 51°29.146 2°57.069 4.3 87 16.8 102000 45
2011-08-19 13:18 51°29.184 2°57.144 4.7 79 16.8 102000 44
2011-08-19 13:19 51°29.226 2°57.208 3 285 16.7 102010 43
2011-08-19 13:20 51°29.266 2°57.272 3.6 82 16.9 102000 44
2011-08-19 13:21 51°29.303 2°57.346 3.4 290 16.8 102000 42
2011-08-19 13:22 51°29.334 2°57.424 3.2 80 16.8 102010 44
2011-08-19 13:23 51°29.363 2°57.507 3.7 78 16.7 102000 44
2011-08-19 13:24 51°29.391 2°57.593 3.4 82 16.8 101990 43
2011-08-19 13:25 51°29.413 2°57.682 2.7 75 16.7 102000 43
2011-08-19 13:26 51°29.435 2°57.775 3.2 77 16.6 102000 42
2011-08-19 13:27 51°29.458 2°57.871 2.7 78 16.6 101990 43
2011-08-19 13:28 51°29.484 2°57.96 2.6 76 16.7 102000 42
2011-08-19 13:29 51°29.514 2°58.044 2.5 285 16.8 101980 41
2011-08-19 13:30 51°29.547 2°58.119 -999 14 16.8 101980 43
2011-08-19 13:31 51°29.581 2°58.203 -999 25 16.9 101990 43
2011-08-19 13:32 51°29.615 2°58.286 -999 79 16.9 101990 43
2011-08-19 13:33 51°29.65 2°58.367 -999 25 16.8 101990 43
2011-08-19 13:34 51°29.681 2°58.455 -999 -999 16.8 101980 42
2011-08-19 13:35 51°29.712 2°58.543 -999 -999 16.8 101990 42
2011-08-19 13:36 51°29.746 2°58.629 -999 -999 16.8 101990 43
2011-08-19 13:37 51°29.779 2°58.719 -999 -999 16.9 101980 42
2011-08-19 13:38 51°29.809 2°58.813 -999 -999 16.7 101980 43
2011-08-19 13:39 51°29.836 2°58.908 -999 -999 16.6 101980 43
2011-08-19 13:40 51°29.869 2°58.996 -999 25 16.5 101980 43
2011-08-19 13:41 51°29.905 2°59.081 -999 -999 16.7 101980 44
2011-08-19 13:42 51°29.945 2°59.161 -999 79 16.8 101980 44
2011-08-19 13:43 51°29.988 2°59.235 -999 281 17 101970 44
2011-08-19 13:44 51°30.036 2°59.301 -999 282 17 101980 44
2011-08-19 13:45 51°30.086 2°59.362 2.6 80 17 101970 42
2011-08-19 13:46 51°30.132 2°59.433 2.6 75 17.1 101970 43
2011-08-19 13:47 51°30.168 2°59.52 -999 26 17.1 101980 43
2011-08-19 13:48 51°30.192 2°59.619 -999 25 17.1 101980 43
2011-08-19 13:49 51°30.202 2°59.724 -999 26 17.1 101980 44
2011-08-19 13:50 51°30.199 2°59.832 -999 25 17.2 101980 44
2011-08-19 13:51 51°30.179 2°59.938 -999 33 17.1 101970 43
2011-08-19 13:52 51°30.143 3°0.034 -999 21 17 101970 43
2011-08-19 13:53 51°30.092 3°0.107 -999 -999 16.9 101970 42
2011-08-19 13:54 51°30.028 3°0.145 4.8 4 16.8 101970 43
2011-08-19 13:55 51°29.962 3°0.142 5.2 355 16.7 101970 43
2011-08-19 13:56 51°29.92 3°0.13 4.1 357 16.6 101970 42
2011-08-19 13:57 51°29.893 3°0.123 4.9 356 16.5 101970 44
2011-08-19 13:58 51°29.858 3°0.105 6.3 352 16.5 101960 44
2011-08-19 13:59 51°29.813 3°0.059 7.1 348 16.4 101960 44
2011-08-19 14:00 51°29.772 2°59.991 5.8 340 16.4 101960 43
2011-08-19 14:01 51°29.737 2°59.909 5.7 338 16.5 101970 43
2011-08-19 14:02 51°29.704 2°59.82 6.8 335 16.7 101970 44
2011-08-19 14:03 51°29.669 2°59.733 5.4 340 16.8 101970 44
2011-08-19 14:04 51°29.632 2°59.646 6.2 338 16.9 101970 44
2011-08-19 14:05 51°29.592 2°59.561 6.2 339 16.9 101970 44
2011-08-19 14:06 51°29.553 2°59.478 6.7 342 16.8 101960 44
2011-08-19 14:07 51°29.516 2°59.395 6.5 279 16.7 101960 44
2011-08-19 14:08 51°29.483 2°59.308 6.3 341 16.7 101960 44
2011-08-19 14:09 51°29.449 2°59.221 6.3 339 16.7 101960 43
2011-08-19 14:10 51°29.411 2°59.129 6.1 341 16.7 101960 44
2011-08-19 14:11 51°29.37 2°59.04 7.7 340 16.7 101960 43
2011-08-19 14:12 51°29.329 2°58.951 8 341 16.7 101960 44
2011-08-19 14:13 51°29.292 2°58.861 6.2 283 16.7 101970 43
2011-08-19 14:14 51°29.257 2°58.767 5.7 333 16.7 101970 43
2011-08-19 14:15 51°29.224 2°58.673 6.7 281 16.8 101970 44
2011-08-19 14:16 51°29.186 2°58.583 5.9 337 16.8 101980 43
2011-08-19 14:17 51°29.147 2°58.496 6.3 338 16.9 101970 42
2011-08-19 14:18 51°29.11 2°58.408 5.8 282 16.9 101970 42
2011-08-19 14:19 51°29.078 2°58.316 6.3 336 16.8 101960 43
2011-08-19 14:20 51°29.045 2°58.226 6.2 287 16.8 101960 43
2011-08-19 14:21 51°29.01 2°58.137 5.9 340 16.8 101960 43
2011-08-19 14:22 51°28.926 2°58.026 8.5 350 16.8 101960 43
2011-08-19 14:23 51°28.741 2°57.96 7.9 345 16.7 101950 43
2011-08-19 14:24 51°28.548 2°57.886 7.5 347 16.6 101960 43
2011-08-19 14:25 51°28.356 2°57.805 9.1 347 16.6 101950 42
2011-08-19 14:26 51°28.165 2°57.72 10.1 345 16.6 101950 44
2011-08-19 14:27 51°27.976 2°57.632 9.9 -999 16.7 101950 44
2011-08-19 14:28 51°27.788 2°57.535 7.6 345 16.5 101950 43
2011-08-19 14:29 51°27.601 2°57.438 8.5 -999 16.5 101950 43
2011-08-19 14:30 51°27.411 2°57.348 9.3 344 16.5 101950 43
2011-08-19 14:31 51°27.225 2°57.248 9.3 -999 16.6 101960 45
2011-08-19 14:32 51°27.035 2°57.155 9.3 346 16.7 101950 44
2011-08-19 14:33 51°26.844 2°57.072 9.4 -999 16.7 101960 42
2011-08-19 14:34 51°26.654 2°56.988 8 278 16.7 101960 43
2011-08-19 14:35 51°26.465 2°56.891 8.7 -999 16.8 101950 44
2011-08-19 14:36 51°26.272 2°56.813 8.8 280 16.9 101960 43
2011-08-19 14:37 51°26.081 2°56.725 11.2 338 16.9 101950 44
2011-08-19 14:38 51°25.888 2°56.648 8.9 286 17 101950 43
2011-08-19 14:39 51°25.689 2°56.598 8.1 342 16.9 101960 43
2011-08-19 14:40 51°25.492 2°56.542 7.8 278 16.9 101950 44
2011-08-19 14:41 51°25.295 2°56.497 9 345 16.9 101950 42
2011-08-19 14:42 51°25.098 2°56.462 7.6 282 16.8 101950 44
2011-08-19 14:43 51°24.903 2°56.409 8.2 341 16.8 101950 44
2011-08-19 14:44 51°24.71 2°56.365 9.3 341 16.8 101950 43
2011-08-19 14:45 51°24.523 2°56.325 7.9 286 16.8 101950 44
2011-08-19 14:46 51°24.336 2°56.29 8.3 342 16.8 101960 44
2011-08-19 14:47 51°24.145 2°56.31 6.1 348 16.7 101960 43
2011-08-19 14:48 51°23.951 2°56.329 9.7 343 16.6 101950 45
2011-08-19 14:49 51°23.763 2°56.276 8.7 341 16.7 101960 42
2011-08-19 14:50 51°23.585 2°56.176 8.6 343 16.7 101950 43
2011-08-19 14:51 51°23.41 2°56.066 8.4 341 16.7 101960 43
2011-08-19 14:52 51°23.231 2°55.955 8.7 340 16.8 101960 43
2011-08-19 14:53 51°23.047 2°55.858 8.2 341 16.8 101960 43
2011-08-19 14:54 51°22.86 2°55.766 8.2 340 16.8 101970 43
2011-08-19 14:55 51°22.677 2°55.689 8 341 16.9 101960 43
2011-08-19 14:56 51°22.495 2°55.6 8.6 341 16.9 101960 42
2011-08-19 14:57 51°22.314 2°55.506 9.5 342 16.9 101970 41
2011-08-19 14:58 51°22.131 2°55.416 6.2 342 17 101960 43
2011-08-19 14:59 51°21.949 2°55.33 7.7 344 16.9 101960 42
2011-08-19 15:00 51°21.769 2°55.231 8.8 344 17 101970 43
2011-08-19 15:01 51°21.594 2°55.14 7.4 341 17 101970 42
2011-08-19 15:02 51°21.413 2°55.054 8.6 340 16.9 101970 43
2011-08-19 15:03 51°21.233 2°54.972 7.7 339 17 101970 43
2011-08-19 15:04 51°21.054 2°54.887 7 341 17 101970 42
2011-08-19 15:05 51°20.874 2°54.803 6.3 340 17 101970 40
2011-08-19 15:06 51°20.693 2°54.731 7.4 343 17 101970 42
2011-08-19 15:07 51°20.507 2°54.653 6.8 340 17 101970 41
2011-08-19 15:08 51°20.322 2°54.599 8.9 342 17 101970 42
2011-08-19 15:09 51°20.132 2°54.54 10.2 338 16.9 101960 41
2011-08-19 15:10 51°19.951 2°54.471 10.1 342 17 101960 42
2011-08-19 15:11 51°19.767 2°54.405 6.7 342 17.1 101960 42
2011-08-19 15:12 51°19.581 2°54.343 8.1 340 17 101960 41
2011-08-19 15:13 51°19.394 2°54.285 6.9 342 17.1 101970 40
2011-08-19 15:14 51°19.208 2°54.219 6 343 17 101960 42
2011-08-19 15:15 51°19.02 2°54.169 9.4 339 17.1 101960 42
2011-08-19 15:16 51°18.835 2°54.107 6.6 340 17.1 101960 41
2011-08-19 15:17 51°18.65 2°54.039 6.8 336 17.1 101960 40
2011-08-19 15:18 51°18.466 2°53.979 7.9 342 17.2 101960 42
2011-08-19 15:19 51°18.278 2°53.923 6.6 338 17.2 101960 41
2011-08-19 15:20 51°18.098 2°53.855 6.5 339 17.1 101960 41
2011-08-19 15:21 51°17.915 2°53.792 8.7 339 17.1 101960 40
2011-08-19 15:22 51°17.73 2°53.727 7.2 340 17.1 101960 41
2011-08-19 15:23 51°17.55 2°53.675 4.4 338 17.2 101960 42
2011-08-19 15:24 51°17.369 2°53.606 7.2 339 17.1 101960 42
2011-08-19 15:25 51°17.188 2°53.542 8 338 17.2 101950 42
2011-08-19 15:26 51°17.003 2°53.508 8.9 340 17.2 101960 42
2011-08-19 15:27 51°16.813 2°53.5 8.3 341 17.2 101960 42
2011-08-19 15:28 51°16.619 2°53.499 7.2 341 17.2 101970 41
2011-08-19 15:29 51°16.427 2°53.527 6.8 342 17.3 101960 39
2011-08-19 15:30 51°16.236 2°53.583 5.6 340 17.3 101960 41
2011-08-19 15:31 51°16.044 2°53.661 7.4 342 17.2 101960 40
2011-08-19 15:32 51°15.853 2°53.759 5.7 341 17.2 101960 40
2011-08-19 15:33 51°15.665 2°53.879 5.7 342 17.2 101970 41
2011-08-19 15:34 51°15.483 2°54.026 6.6 340 17.2 101960 40
2011-08-19 15:35 51°15.303 2°54.186 5.7 339 17.2 101970 41
2011-08-19 15:36 51°15.125 2°54.342 4.4 340 17.2 101960 41
2011-08-19 15:37 51°14.957 2°54.536 4.4 337 17.2 101960 39
2011-08-19 15:38 51°14.801 2°54.761 5 337 17.2 101970 41
2011-08-19 15:39 51°14.64 2°54.985 4.4 334 17.2 101970 41
2011-08-19 15:40 51°14.46 2°55.134 5.8 345 17.2 101960 40
2011-08-19 15:41 51°14.289 2°55.283 4.6 343 17.2 101960 40
2011-08-19 15:42 51°14.136 2°55.408 4 347 17.3 101960 41
2011-08-19 15:43 51°14.011 2°55.501 2.2 348 17.2 101960 41
2011-08-19 15:44 51°13.917 2°55.574 2.8 354 17.2 101970 41
2011-08-19 15:45 51°13.828 2°55.641 0.1 16 17.2 101960 39
2011-08-19 15:46 51°13.756 2°55.713 1.4 336 17.2 101960 38
2011-08-19 15:47 51°13.703 2°55.806 0.8 19 17.3 101970 38
2011-08-19 15:48 51°13.66 2°55.9 1.8 45 17.4 101970 38
2011-08-19 15:49 51°13.639 2°55.984 -999 25 17.5 101970 37
2011-08-19 15:50 51°13.636 2°56.015 1.6 20 17.7 101970 37
2011-08-19 15:51 51°13.636 2°56.018 1.3 29 17.9 101970 37
2011-08-19 15:52 51°13.637 2°56.019 3.4 22 18 101970 36
2011-08-19 15:53 51°13.638 2°56.019 1.7 24 18.1 101970 35